Flag for Egypt

Past Weather in Cairo, Egypt — Yesterday and Last 2 Weeks

Now
84 °F

Passing clouds.


Feels Like: 86 °F
Forecast: 94 / 73 °F
Wind: 14 mph from North

Location: Cairo Airport
Current Time: Sep 23, 2020 at 7:08:50 pm
Latest Report: Sep 23, 2020 at 6:30 pm
Visibility: N/A
Pressure29.92 "Hg
Humidity: 51%
Dew Point: 64 °F
Location of CairoLocation

Past Weather in Cairo — Graph

°F

Cairo Temperature Yesterday

Maximum temperature yesterday: 91 °F (at 12:30 pm)
Minimum temperature yesterday: 75 °F (at 5:00 am)
Average temperature yesterday: 83 °F

High & Low Weather Summary for the Past Weeks

 TemperatureHumidityPressure
High99 °F (Sep 11, 2:00 pm)100% (Sep 19, 6:30 am)29.98 "Hg (Sep 19, 6:30 am)
Low73 °F (Sep 15, 6:00 am)19% (Sep 18, 1:00 pm)29.65 "Hg (Sep 10, 2:00 pm)
Average85 °F59%29.86 "Hg
* Reported Sep 8 6:00 pm — Sep 23 6:00 pm, Cairo. Weather by CustomWeather, © 2020

Note: Actual official high and low records may vary slightly from our data, if they occured in-between our weather recording intervals... More about our weather records

Cairo Weather History for the Previous 24 Hours

Scroll right to see more
 ConditionsComfort  
Time TempWeatherWind HumidityBarometerVisibility
6:00 pm
Wed, Sep 23
86 °FPassing clouds.14 mph46%29.92 "HgN/A
5:30 pm86 °FScattered clouds.16 mph46%29.92 "HgN/A
5:00 pm88 °FScattered clouds.12 mph40%29.89 "HgN/A
4:00 pm88 °FScattered clouds.14 mph40%29.89 "HgN/A
3:30 pm90 °FScattered clouds.9 mph38%29.89 "HgN/A
3:00 pm90 °FScattered clouds.10 mph41%29.89 "HgN/A
2:30 pm88 °FScattered clouds.10 mph40%29.89 "HgN/A
2:00 pm88 °FScattered clouds.10 mph43%29.92 "HgN/A
1:30 pm88 °FScattered clouds.8 mph40%29.92 "HgN/A
1:00 pm88 °FScattered clouds.7 mph46%29.95 "HgN/A
12:30 pm88 °FScattered clouds.10 mph43%29.92 "HgN/A
11:30 am84 °FScattered clouds.9 mph51%29.95 "HgN/A
11:00 am86 °FScattered clouds.8 mph49%29.98 "HgN/A
10:30 am84 °FScattered clouds.9 mph51%29.98 "HgN/A
10:00 am82 °FScattered clouds.7 mph58%29.98 "HgN/A
9:30 am81 °FScattered clouds.7 mph66%29.98 "HgN/A
9:00 am81 °FScattered clouds.9 mph66%29.98 "HgN/A
8:00 am79 °FScattered clouds.10 mph74%29.98 "HgN/A
7:30 am77 °FScattered clouds.10 mph79%29.98 "Hg4 mi
7:00 am77 °FScattered clouds.9 mph79%29.98 "Hg4 mi
6:30 am77 °FScattered clouds.10 mph74%29.98 "Hg4 mi
6:00 am75 °FScattered clouds.12 mph78%29.98 "Hg4 mi
5:30 am75 °FPassing clouds.10 mph78%29.98 "HgN/A
4:30 am77 °FPassing clouds.9 mph79%29.95 "HgN/A
4:00 am77 °FPassing clouds.9 mph79%29.95 "HgN/A
3:30 am77 °FPassing clouds.10 mph79%29.95 "HgN/A
3:00 am77 °FPassing clouds.10 mph79%29.95 "HgN/A
2:30 am77 °FPassing clouds.9 mph79%29.95 "HgN/A
2:00 am77 °FPassing clouds.10 mph79%29.95 "HgN/A
1:30 am79 °FPassing clouds.10 mph74%29.95 "HgN/A
1:00 am79 °FPassing clouds.12 mph74%29.95 "HgN/A
12:30 am79 °FPassing clouds.12 mph74%29.95 "HgN/A
12:00 am79 °FPassing clouds.12 mph70%29.98 "HgN/A
11:30 pm
Tue, Sep 22
79 °FPassing clouds.15 mph70%29.98 "HgN/A
11:00 pm79 °FPassing clouds.14 mph70%29.98 "HgN/A
10:30 pm79 °FClear.15 mph74%29.98 "Hg10 mi
10:00 pm81 °FClear.16 mph70%29.98 "Hg10 mi
9:30 pm81 °FClear.17 mph66%29.98 "Hg10 mi
9:00 pm82 °FClear.17 mph62%29.98 "Hg10 mi
8:30 pm82 °FClear.20 mph66%29.95 "Hg10 mi
8:00 pm84 °FClear.20 mph58%29.95 "Hg10 mi
7:30 pm86 °FPassing clouds.18 mph55%29.95 "HgN/A
7:00 pm88 °FPassing clouds.16 mph49%29.92 "HgN/A
Weather by CustomWeather, © 2020

See weather overview